Weather History for Austin, TX

Change the Weather History Date:

Saturday, August 10, 2013

  Actual Average Record
Temperature  
Mean Temperature 92 °F 86 °F  
Max Temperature 106 °F 98 °F 107 °F (2012)
Min Temperature 77 °F 75 °F 65 °F (1989)
Degree Days  
Heating Degree Days 0 0  
Month to date heating degree days 0 0  
Since 1 June heating degree days 0 0  
Since 1 July heating degree days 0 0  
Cooling Degree Days 27 21  
Month to date cooling degree days 258 210  
Year to date cooling degree days 2143 1959  
Since 1 June cooling degree days 1519 1346  
Growing Degree Days 41 (Base 50)    
Moisture  
Dew Point 67 °F    
Average Humidity 50    
Maximum Humidity 74    
Minimum Humidity 25    
Precipitation  
Precipitation 0.00 in 0.06 in 1.73 in (2002)
Month to date precipitation 0.00 0.60  
Year to date precipitation 17.51 20.34  
Snow  
Snow 0.00 in - - ()
Month to date snowfall 0.0  
Since 1 June snowfall 0.0  
Since 1 July snowfall 0.0  
Snow Depth 0.00 in    
Sea Level Pressure  
Sea Level Pressure 29.97 in    
Wind  
Wind Speed 4 mph (SE)    
Max Wind Speed 17 mph    
Max Gust Speed 28 mph    
Visibility 10 miles    
Events Thunderstorm    
T = Trace of Precipitation, MM = Missing Value Source: NWS Daily Summary

Daily Weather History Graph

Daily Weather History Graph

Search for Another Location

Airport:

Trip Planner

Search our weather history database for the weather conditions in past years. The results will help you decide how hot, cold, wet, or windy it might be!

Date:

Astronomy

Aug. 10, 2013 Rise Set
Actual Time 6:55 AM CDT 8:17 PM CDT
Civil Twilight 6:29 AM CDT 8:42 PM CDT
Nautical Twilight 5:59 AM CDT 9:12 PM CDT
Astronomical Twilight 5:27 AM CDT 9:44 PM CDT
Moon 10:22 AM CDT (8/10) 10:22 PM CDT (8/10)
Length of Visible Light 14h 12m
Length of Day
13h 21m
Waxing Crescent, 14% of the Moon is Illuminated
Aug 10
Waxing Crescent
Aug 14
First Quarter
Aug 20
Full
Aug 28
Last Quarter
Sep 5
New

Hourly Weather History & Observations

Time (CDT) Temp. Heat Index Dew Point Humidity Pressure Visibility Wind Dir Wind Speed Gust Speed Precip Events Conditions
12:51 AM 87.1 °F 91.3 °F 69.1 °F 55% 29.95 in 10.0 mi SSE 5.8 mph - N/A   Clear
1:51 AM 84.9 °F 89.4 °F 70.0 °F 61% 29.95 in 10.0 mi Variable 6.9 mph - N/A   Clear
2:51 AM 82.9 °F 86.5 °F 69.1 °F 63% 29.95 in 10.0 mi Variable 3.5 mph - N/A   Clear
3:51 AM 82.0 °F 85.5 °F 69.1 °F 65% 29.96 in 10.0 mi South 3.5 mph - N/A   Clear
4:51 AM 80.1 °F 82.9 °F 69.1 °F 69% 29.95 in 10.0 mi Calm Calm - N/A   Clear
5:51 AM 79.0 °F - 69.1 °F 72% 29.95 in 10.0 mi Calm Calm - N/A   Clear
6:51 AM 78.1 °F - 69.1 °F 74% 29.96 in 10.0 mi Calm Calm - N/A   Clear
7:51 AM 80.1 °F 83.2 °F 70.0 °F 71% 29.97 in 10.0 mi Calm Calm - N/A   Clear
8:51 AM 84.9 °F 89.4 °F 70.0 °F 61% 29.99 in 10.0 mi Calm Calm - N/A   Clear
9:51 AM 90.0 °F 95.4 °F 70.0 °F 52% 30.00 in 10.0 mi Variable 3.5 mph - N/A   Clear
10:51 AM 93.0 °F 95.9 °F 66.0 °F 41% 30.01 in 10.0 mi East 4.6 mph - N/A   Clear
11:51 AM 96.1 °F 99.3 °F 66.0 °F 37% 30.01 in 10.0 mi Variable 3.5 mph - N/A   Clear
12:51 PM 98.1 °F 102.4 °F 66.9 °F 36% 29.99 in 10.0 mi Variable 4.6 mph - N/A   Clear
1:51 PM 99.0 °F 102.3 °F 64.9 °F 33% 29.97 in 10.0 mi East 6.9 mph - N/A   Partly Cloudy
2:51 PM 102.9 °F 106.1 °F 64.0 °F 28% 29.94 in 10.0 mi Variable 4.6 mph - N/A   Partly Cloudy
3:51 PM 104.0 °F 106.0 °F 62.1 °F 25% 29.92 in 10.0 mi Variable 3.5 mph - N/A   Clear
4:51 PM 102.9 °F 103.6 °F 60.1 °F 24% 29.89 in 10.0 mi Variable 4.6 mph - N/A   Clear
5:51 PM 102.0 °F 103.3 °F 61.0 °F 26% 29.89 in 10.0 mi Variable 4.6 mph - N/A   Clear
6:51 PM 89.1 °F 92.9 °F 68.0 °F 50% 29.94 in 10.0 mi South 5.8 mph - N/A   Clear
7:51 PM 88.0 °F 90.7 °F 66.9 °F 49% 29.95 in 10.0 mi SSE 6.9 mph - N/A   Clear
8:51 PM 87.1 °F 90.6 °F 68.0 °F 53% 29.99 in 10.0 mi Variable 4.6 mph - N/A   Partly Cloudy
9:07 PM 87.1 °F 90.6 °F 68.0 °F 53% 30.03 in 10.0 mi East 5.8 mph - N/A Thunderstorm Thunderstorm
9:22 PM 87.1 °F 91.3 °F 69.1 °F 55% 30.03 in 10.0 mi Calm Calm - N/A   Clear
9:51 PM 86.0 °F 90.1 °F 69.1 °F 57% 29.99 in 10.0 mi SE 5.8 mph - N/A   Partly Cloudy
10:51 PM 86.0 °F 90.7 °F 70.0 °F 59% 29.99 in 10.0 mi Calm Calm - N/A   Clear
11:51 PM 84.9 °F 89.4 °F 70.0 °F 61% 30.00 in 10.0 mi Variable 3.5 mph - N/A   Clear